Time,TemperatureF,DewpointF,PressureIn,WindDirection,WindDirectionDegrees,WindSpeedMPH,WindSpeedGustMPH,Humidity,HourlyPrecipIn,Conditions,Clouds,dailyrainin,SoftwareType,DateUTC
2013-02-02 00:00:00,24.5,9.0,30.38,North,359,0.0,0.0,51,0.00,,---,0.00,VWS V13.01,2013-02-02 05:00:00,
2013-02-02 00:05:00,24.4,8.9,30.38,North,359,0.0,0.0,51,0.00,,---,0.00,VWS V13.01,2013-02-02 05:05:00,
2013-02-02 00:10:00,24.2,8.7,30.38,North,359,0.0,0.0,51,0.00,,---,0.00,VWS V13.01,2013-02-02 05:10:00,
2013-02-02 00:15:00,24.2,9.1,30.38,North,359,0.0,0.0,52,0.00,,---,0.00,VWS V13.01,2013-02-02 05:15:00,
2013-02-02 00:20:00,24.1,9.5,30.38,North,359,0.0,0.0,53,0.00,,---,0.00,VWS V13.01,2013-02-02 05:20:00,
2013-02-02 00:25:00,24.1,9.9,30.38,North,359,0.0,0.0,54,0.00,,---,0.00,VWS V13.01,2013-02-02 05:25:00,
2013-02-02 00:30:00,23.9,9.7,30.38,North,359,0.0,0.0,54,0.00,,---,0.00,VWS V13.01,2013-02-02 05:30:00,
2013-02-02 00:35:00,23.9,9.7,30.38,North,359,0.0,0.0,54,0.00,,---,0.00,VWS V13.01,2013-02-02 05:35:00,
2013-02-02 00:40:00,23.8,10.0,30.38,North,359,0.0,0.0,55,0.00,,---,0.00,VWS V13.01,2013-02-02 05:40:00,
2013-02-02 00:45:00,23.6,9.8,30.38,North,359,0.0,0.0,55,0.00,,---,0.00,VWS V13.01,2013-02-02 05:45:00,
2013-02-02 00:50:00,23.5,10.1,30.39,North,359,0.0,0.0,56,0.00,,---,0.00,VWS V13.01,2013-02-02 05:50:00,
2013-02-02 00:55:00,23.5,10.5,30.38,North,359,0.0,0.0,57,0.00,,---,0.00,VWS V13.01,2013-02-02 05:55:00,
2013-02-02 01:00:00,23.3,10.3,30.38,North,359,0.0,0.0,57,0.00,,---,0.00,VWS V13.01,2013-02-02 06:00:00,
2013-02-02 01:05:00,23.3,10.3,30.38,North,359,0.0,0.0,57,0.00,,---,0.00,VWS V13.01,2013-02-02 06:05:00,
2013-02-02 01:10:00,23.3,10.3,30.38,North,359,0.0,0.0,57,0.00,,---,0.00,VWS V13.01,2013-02-02 06:10:00,
2013-02-02 01:15:00,23.3,11.1,30.38,North,359,0.0,0.0,59,0.00,,---,0.00,VWS V13.01,2013-02-02 06:15:00,
2013-02-02 01:20:00,23.3,10.3,30.38,North,359,0.0,0.0,57,0.00,,---,0.00,VWS V13.01,2013-02-02 06:20:00,
2013-02-02 01:25:00,23.3,10.3,30.37,North,359,0.0,0.0,57,0.00,,---,0.00,VWS V13.01,2013-02-02 06:25:00,
2013-02-02 01:30:00,23.3,10.7,30.38,North,359,0.0,0.0,58,0.00,,---,0.00,VWS V13.01,2013-02-02 06:30:00,
2013-02-02 01:35:00,23.3,10.7,30.37,North,359,0.0,0.0,58,0.00,,---,0.00,VWS V13.01,2013-02-02 06:35:00,
2013-02-02 01:40:00,23.3,11.1,30.37,North,359,0.0,0.0,59,0.00,,---,0.00,VWS V13.01,2013-02-02 06:40:00,
2013-02-02 01:45:00,23.2,11.0,30.37,North,359,0.0,0.0,59,0.00,,---,0.00,VWS V13.01,2013-02-02 06:45:00,
2013-02-02 01:50:00,23.2,11.0,30.38,North,359,0.0,0.0,59,0.00,,---,0.00,VWS V13.01,2013-02-02 06:50:00,
2013-02-02 01:55:00,23.2,11.4,30.37,North,359,0.0,0.0,60,0.00,,---,0.00,VWS V13.01,2013-02-02 06:55:00,
2013-02-02 02:00:00,23.2,11.8,30.38,North,359,0.0,0.0,61,0.00,,---,0.00,VWS V13.01,2013-02-02 07:00:00,
2013-02-02 02:05:00,23.2,11.8,30.37,North,359,0.0,0.0,61,0.00,,---,0.00,VWS V13.01,2013-02-02 07:05:00,
2013-02-02 02:10:00,23.0,11.6,30.37,North,359,0.0,0.0,61,0.00,,---,0.00,VWS V13.01,2013-02-02 07:10:00,
2013-02-02 02:15:00,23.0,11.9,30.37,North,359,0.0,0.0,62,0.00,,---,0.00,VWS V13.01,2013-02-02 07:15:00,
2013-02-02 02:20:00,23.0,11.9,30.37,North,359,0.0,0.0,62,0.00,,---,0.00,VWS V13.01,2013-02-02 07:20:00,
2013-02-02 02:25:00,22.9,11.5,30.38,North,359,0.0,0.0,61,0.00,,---,0.00,VWS V13.01,2013-02-02 07:25:00,
2013-02-02 02:30:00,22.9,11.5,30.37,North,359,0.0,0.0,61,0.00,,---,0.00,VWS V13.01,2013-02-02 07:30:00,
2013-02-02 02:35:00,22.7,11.3,30.37,North,359,0.0,0.0,61,0.00,,---,0.00,VWS V13.01,2013-02-02 07:35:00,
2013-02-02 02:40:00,22.7,11.6,30.38,North,359,0.0,0.0,62,0.00,,---,0.00,VWS V13.01,2013-02-02 07:40:00,
2013-02-02 02:45:00,22.7,12.0,30.38,North,359,0.0,0.0,63,0.00,,---,0.00,VWS V13.01,2013-02-02 07:45:00,
2013-02-02 02:50:00,22.7,12.0,30.37,North,359,0.0,0.0,63,0.00,,---,0.00,VWS V13.01,2013-02-02 07:50:00,
2013-02-02 02:55:00,22.7,11.6,30.37,North,359,0.0,0.0,62,0.00,,---,0.00,VWS V13.01,2013-02-02 07:55:00,
2013-02-02 03:00:00,22.5,11.5,30.38,North,359,0.0,0.0,62,0.00,,---,0.00,VWS V13.01,2013-02-02 08:00:00,
2013-02-02 03:06:00,22.5,11.1,30.38,North,359,0.0,0.0,61,0.00,,---,0.00,VWS V13.01,2013-02-02 08:06:00,
2013-02-02 03:11:00,22.5,11.5,30.38,North,359,0.0,0.0,62,0.00,,---,0.00,VWS V13.01,2013-02-02 08:11:00,
2013-02-02 03:16:00,22.5,11.5,30.37,North,359,0.0,0.0,62,0.00,,---,0.00,VWS V13.01,2013-02-02 08:16:00,
2013-02-02 03:21:00,22.4,11.4,30.37,North,359,0.0,0.0,62,0.00,,---,0.00,VWS V13.01,2013-02-02 08:21:00,
2013-02-02 03:26:00,22.4,11.4,30.37,North,359,0.0,0.0,62,0.00,,---,0.00,VWS V13.01,2013-02-02 08:26:00,
2013-02-02 03:31:00,22.4,11.4,30.37,North,359,0.0,0.0,62,0.00,,---,0.00,VWS V13.01,2013-02-02 08:31:00,
2013-02-02 03:36:00,22.2,11.2,30.37,North,359,0.0,0.0,62,0.00,,---,0.00,VWS V13.01,2013-02-02 08:36:00,
2013-02-02 03:41:00,22.2,11.5,30.36,North,359,0.0,0.0,63,0.00,,---,0.00,VWS V13.01,2013-02-02 08:41:00,
2013-02-02 03:46:00,22.2,11.5,30.36,North,359,0.0,0.0,63,0.00,,---,0.00,VWS V13.01,2013-02-02 08:46:00,
2013-02-02 03:50:00,22.1,11.8,30.36,North,359,0.0,0.0,64,0.00,,---,0.00,VWS V13.01,2013-02-02 08:50:00,
2013-02-02 03:55:00,22.1,12.1,30.36,North,359,0.0,0.0,65,0.00,,---,0.00,VWS V13.01,2013-02-02 08:55:00,
2013-02-02 04:00:00,22.1,12.1,30.36,North,359,0.0,0.0,65,0.00,,---,0.00,VWS V13.01,2013-02-02 09:00:00,
2013-02-02 04:05:00,21.9,12.3,30.36,North,359,0.0,0.0,66,0.00,,---,0.00,VWS V13.01,2013-02-02 09:05:00,
2013-02-02 04:10:00,21.9,12.6,30.36,North,359,0.0,0.0,67,0.00,,---,0.00,VWS V13.01,2013-02-02 09:10:00,
2013-02-02 04:15:00,21.6,12.4,30.36,North,359,0.0,0.0,67,0.00,,---,0.00,VWS V13.01,2013-02-02 09:15:00,
2013-02-02 04:20:00,21.4,12.5,30.36,North,359,0.0,0.0,68,0.00,,---,0.00,VWS V13.01,2013-02-02 09:20:00,
2013-02-02 04:25:00,21.4,12.5,30.36,North,359,0.0,0.0,68,0.00,,---,0.00,VWS V13.01,2013-02-02 09:25:00,
2013-02-02 04:30:00,21.3,12.4,30.36,North,359,0.0,0.0,68,0.00,,---,0.00,VWS V13.01,2013-02-02 09:30:00,
2013-02-02 04:35:00,21.1,11.9,30.36,North,359,0.0,0.0,67,0.00,,---,0.00,VWS V13.01,2013-02-02 09:35:00,
2013-02-02 04:40:00,21.1,11.9,30.37,North,359,0.0,0.0,67,0.00,,---,0.00,VWS V13.01,2013-02-02 09:40:00,
2013-02-02 04:45:00,21.1,11.9,30.37,North,359,0.0,0.0,67,0.00,,---,0.00,VWS V13.01,2013-02-02 09:45:00,
2013-02-02 04:50:00,21.0,11.8,30.37,North,359,0.0,0.0,67,0.00,,---,0.00,VWS V13.01,2013-02-02 09:50:00,
2013-02-02 04:55:00,21.0,11.8,30.37,North,359,0.0,0.0,67,0.00,,---,0.00,VWS V13.01,2013-02-02 09:55:00,
2013-02-02 05:00:00,21.0,11.8,30.37,North,359,0.0,0.0,67,0.00,,---,0.00,VWS V13.01,2013-02-02 10:00:00,
2013-02-02 05:05:00,20.8,11.9,30.38,North,359,0.0,0.0,68,0.00,,---,0.00,VWS V13.01,2013-02-02 10:05:00,
2013-02-02 05:10:00,20.8,11.9,30.37,North,359,0.0,0.0,68,0.00,,---,0.00,VWS V13.01,2013-02-02 10:10:00,
2013-02-02 05:15:00,20.8,11.9,30.37,North,359,0.0,0.0,68,0.00,,---,0.00,VWS V13.01,2013-02-02 10:15:00,
2013-02-02 05:20:00,20.6,11.7,30.37,North,359,0.0,0.0,68,0.00,,---,0.00,VWS V13.01,2013-02-02 10:20:00,
2013-02-02 05:25:00,20.6,11.7,30.37,North,359,0.0,0.0,68,0.00,,---,0.00,VWS V13.01,2013-02-02 10:25:00,
2013-02-02 05:30:00,20.6,12.1,30.37,North,359,0.0,0.0,69,0.00,,---,0.00,VWS V13.01,2013-02-02 10:30:00,
2013-02-02 05:35:00,20.6,12.1,30.37,North,359,0.0,0.0,69,0.00,,---,0.00,VWS V13.01,2013-02-02 10:35:00,
2013-02-02 05:40:00,20.5,12.0,30.37,North,359,0.0,0.0,69,0.00,,---,0.00,VWS V13.01,2013-02-02 10:40:00,
2013-02-02 05:45:00,20.5,12.3,30.37,North,359,0.0,0.0,70,0.00,,---,0.00,VWS V13.01,2013-02-02 10:45:00,
2013-02-02 05:50:00,20.5,12.3,30.37,North,359,0.0,0.0,70,0.00,,---,0.00,VWS V13.01,2013-02-02 10:50:00,
2013-02-02 05:55:00,20.3,12.1,30.37,North,359,0.0,0.0,70,0.00,,---,0.00,VWS V13.01,2013-02-02 10:55:00,
2013-02-02 06:00:00,20.3,12.1,30.38,North,359,0.0,0.0,70,0.00,,---,0.00,VWS V13.01,2013-02-02 11:00:00,
2013-02-02 06:05:00,20.2,12.0,30.37,North,359,0.0,0.0,70,0.00,,---,0.00,VWS V13.01,2013-02-02 11:05:00,
2013-02-02 06:10:00,20.2,12.0,30.38,North,359,0.0,0.0,70,0.00,,---,0.00,VWS V13.01,2013-02-02 11:10:00,
2013-02-02 06:15:00,20.0,11.5,30.38,North,359,0.0,0.0,69,0.00,,---,0.00,VWS V13.01,2013-02-02 11:15:00,
2013-02-02 06:20:00,20.0,11.5,30.38,North,359,0.0,0.0,69,0.00,,---,0.00,VWS V13.01,2013-02-02 11:20:00,
2013-02-02 06:25:00,20.0,11.8,30.38,North,359,0.0,0.0,70,0.00,,---,0.00,VWS V13.01,2013-02-02 11:25:00,
2013-02-02 06:30:00,20.0,11.8,30.38,North,359,0.0,0.0,70,0.00,,---,0.00,VWS V13.01,2013-02-02 11:30:00,
2013-02-02 06:35:00,20.0,11.8,30.38,North,359,0.0,0.0,70,0.00,,---,0.00,VWS V13.01,2013-02-02 11:35:00,
2013-02-02 06:40:00,20.0,11.8,30.38,North,359,0.0,0.0,70,0.00,,---,0.00,VWS V13.01,2013-02-02 11:40:00,
2013-02-02 06:45:00,19.9,11.7,30.38,North,359,0.0,0.0,70,0.00,,---,0.00,VWS V13.01,2013-02-02 11:45:00,
2013-02-02 06:50:00,19.9,11.7,30.39,North,359,0.0,0.0,70,0.00,,---,0.00,VWS V13.01,2013-02-02 11:50:00,
2013-02-02 06:55:00,19.7,11.5,30.39,North,359,0.0,0.0,70,0.00,,---,0.00,VWS V13.01,2013-02-02 11:55:00,
2013-02-02 07:00:00,19.9,11.7,30.39,North,359,0.0,0.0,70,0.00,,---,0.00,VWS V13.01,2013-02-02 12:00:00,
2013-02-02 07:05:00,19.9,11.7,30.39,North,359,0.0,0.0,70,0.00,,---,0.00,VWS V13.01,2013-02-02 12:05:00,
2013-02-02 07:10:00,19.9,11.7,30.39,North,359,0.0,0.0,70,0.00,,---,0.00,VWS V13.01,2013-02-02 12:10:00,
2013-02-02 07:15:00,19.7,11.5,30.39,North,359,0.0,0.0,70,0.00,,---,0.00,VWS V13.01,2013-02-02 12:15:00,
2013-02-02 07:20:00,19.9,11.7,30.39,North,359,0.0,0.0,70,0.00,,---,0.00,VWS V13.01,2013-02-02 12:20:00,
2013-02-02 07:25:00,19.9,11.7,30.39,North,359,0.0,0.0,70,0.00,,---,0.00,VWS V13.01,2013-02-02 12:25:00,
2013-02-02 07:30:00,19.9,11.7,30.39,North,359,0.0,0.0,70,0.00,,---,0.00,VWS V13.01,2013-02-02 12:30:00,
2013-02-02 07:35:00,19.7,11.5,30.39,North,359,0.0,0.0,70,0.00,,---,0.00,VWS V13.01,2013-02-02 12:35:00,
2013-02-02 07:40:00,19.7,11.8,30.40,North,359,0.0,0.0,71,0.00,,---,0.00,VWS V13.01,2013-02-02 12:40:00,
2013-02-02 07:45:00,19.7,11.8,30.40,North,359,0.0,0.0,71,0.00,,---,0.00,VWS V13.01,2013-02-02 12:45:00,
2013-02-02 07:50:00,19.7,11.8,30.39,North,359,0.0,1.0,71,0.00,,---,0.00,VWS V13.01,2013-02-02 12:50:00,
2013-02-02 07:55:00,19.7,11.8,30.40,North,359,0.0,0.0,71,0.00,,---,0.00,VWS V13.01,2013-02-02 12:55:00,
2013-02-02 08:00:00,19.7,12.1,30.41,North,359,0.0,1.0,72,0.00,,---,0.00,VWS V13.01,2013-02-02 13:00:00,
2013-02-02 08:05:00,19.7,12.1,30.41,North,359,0.0,1.0,72,0.00,,---,0.00,VWS V13.01,2013-02-02 13:05:00,
2013-02-02 08:10:00,19.7,12.5,30.41,North,359,0.0,0.0,73,0.00,,---,0.00,VWS V13.01,2013-02-02 13:10:00,
2013-02-02 08:15:00,19.9,12.7,30.41,North,359,0.0,0.0,73,0.00,,---,0.00,VWS V13.01,2013-02-02 13:15:00,
2013-02-02 08:20:00,19.9,12.7,30.40,North,359,0.0,1.0,73,0.00,,---,0.00,VWS V13.01,2013-02-02 13:20:00,
2013-02-02 08:25:00,20.0,13.1,30.40,North,359,0.0,1.0,74,0.00,,---,0.00,VWS V13.01,2013-02-02 13:25:00,
2013-02-02 08:30:00,20.0,13.1,30.41,North,359,0.0,2.0,74,0.00,,---,0.00,VWS V13.01,2013-02-02 13:30:00,
2013-02-02 08:35:00,20.2,13.2,30.41,SW,226,0.0,2.0,74,0.00,,---,0.00,VWS V13.01,2013-02-02 13:35:00,
2013-02-02 08:40:00,20.5,13.5,30.41,SW,226,0.0,1.0,74,0.00,,---,0.00,VWS V13.01,2013-02-02 13:40:00,
2013-02-02 08:45:00,20.6,13.9,30.40,SW,226,0.0,1.0,75,0.00,,---,0.00,VWS V13.01,2013-02-02 13:45:00,
2013-02-02 08:50:00,21.0,14.0,30.40,SW,226,0.0,0.0,74,0.00,,---,0.00,VWS V13.01,2013-02-02 13:50:00,
2013-02-02 08:55:00,21.4,14.4,30.40,South,191,0.0,2.0,74,0.00,,---,0.00,VWS V13.01,2013-02-02 13:55:00,
2013-02-02 09:00:00,21.9,14.6,30.40,South,191,0.0,1.0,73,0.00,,---,0.00,VWS V13.01,2013-02-02 14:00:00,
2013-02-02 09:05:00,22.2,14.2,30.40,SSW,207,0.0,1.0,71,0.00,,---,0.00,VWS V13.01,2013-02-02 14:05:00,
2013-02-02 09:10:00,22.5,13.9,30.40,West,279,2.0,4.0,69,0.00,,---,0.00,VWS V13.01,2013-02-02 14:10:00,
2013-02-02 09:15:00,23.0,14.0,30.40,South,182,0.0,2.0,68,0.00,,---,0.00,VWS V13.01,2013-02-02 14:15:00,
2013-02-02 09:20:00,23.5,13.8,30.40,South,191,0.0,2.0,66,0.00,,---,0.00,VWS V13.01,2013-02-02 14:20:00,
2013-02-02 09:25:00,24.1,13.7,30.40,WSW,241,1.0,3.0,64,0.00,,---,0.00,VWS V13.01,2013-02-02 14:25:00,
2013-02-02 09:30:00,24.8,13.3,30.39,SSW,200,1.0,4.0,61,0.00,,---,0.00,VWS V13.01,2013-02-02 14:30:00,
2013-02-02 09:35:00,25.7,13.4,30.39,South,185,0.0,3.0,59,0.00,,---,0.00,VWS V13.01,2013-02-02 14:35:00,
2013-02-02 09:40:00,26.4,12.8,30.39,SSW,209,0.0,4.0,56,0.00,,---,0.00,VWS V13.01,2013-02-02 14:40:00,
2013-02-02 09:45:00,27.2,12.8,30.39,SSW,193,0.0,5.0,54,0.00,,---,0.00,VWS V13.01,2013-02-02 14:45:00,
2013-02-02 09:50:00,27.8,12.5,30.38,SSE,168,0.0,4.0,52,0.00,,---,0.00,VWS V13.01,2013-02-02 14:50:00,
2013-02-02 09:55:00,28.1,12.3,30.38,SSW,197,0.0,2.0,51,0.00,,---,0.00,VWS V13.01,2013-02-02 14:55:00,
2013-02-02 10:00:00,28.7,12.4,30.37,SSW,199,0.0,1.0,50,0.00,,---,0.00,VWS V13.01,2013-02-02 15:00:00,
2013-02-02 10:05:00,29.1,11.9,30.37,SSE,159,0.0,4.0,48,0.00,,---,0.00,VWS V13.01,2013-02-02 15:05:00,
2013-02-02 10:10:00,29.4,11.7,30.37,South,186,0.0,4.0,47,0.00,,---,0.00,VWS V13.01,2013-02-02 15:10:00,
2013-02-02 10:15:00,29.8,11.6,30.37,SSE,160,0.0,3.0,46,0.00,,---,0.00,VWS V13.01,2013-02-02 15:15:00,
2013-02-02 10:20:00,30.4,11.6,30.37,South,185,0.0,5.0,45,0.00,,---,0.00,VWS V13.01,2013-02-02 15:20:00,
2013-02-02 10:25:00,31.3,11.9,30.36,ESE,104,1.0,2.0,44,0.00,,---,0.00,VWS V13.01,2013-02-02 15:25:00,
2013-02-02 10:30:00,32.4,13.9,30.36,WSW,253,1.0,4.0,46,0.00,,---,0.00,VWS V13.01,2013-02-02 15:30:00,
2013-02-02 10:35:00,32.4,12.9,30.36,SW,236,0.0,3.0,44,0.00,,---,0.00,VWS V13.01,2013-02-02 15:35:00,
2013-02-02 10:40:00,32.4,11.3,30.35,WNW,282,2.0,4.0,41,0.00,,---,0.00,VWS V13.01,2013-02-02 15:40:00,
2013-02-02 10:45:00,32.7,10.5,30.35,South,183,0.0,4.0,39,0.00,,---,0.00,VWS V13.01,2013-02-02 15:45:00,
2013-02-02 10:50:00,32.8,10.6,30.34,WSW,258,0.0,1.0,39,0.00,,---,0.00,VWS V13.01,2013-02-02 15:50:00,
2013-02-02 10:55:00,33.1,10.3,30.34,SSE,158,0.0,5.0,38,0.00,,---,0.00,VWS V13.01,2013-02-02 15:55:00,
2013-02-02 11:00:00,33.1,9.1,30.34,SSE,161,0.0,5.0,36,0.00,,---,0.00,VWS V13.01,2013-02-02 16:00:00,
2013-02-02 11:05:00,33.2,10.4,30.33,WSW,243,0.0,4.0,38,0.00,,---,0.00,VWS V13.01,2013-02-02 16:05:00,
2013-02-02 11:10:00,34.1,10.6,30.33,SSE,151,4.0,4.0,37,0.00,,---,0.00,VWS V13.01,2013-02-02 16:10:00,
2013-02-02 11:15:00,34.7,9.9,30.32,SSW,197,0.0,6.0,35,0.00,,---,0.00,VWS V13.01,2013-02-02 16:15:00,
2013-02-02 11:20:00,34.4,8.3,30.32,SW,215,0.0,9.0,33,0.00,,---,0.00,VWS V13.01,2013-02-02 16:20:00,
2013-02-02 11:25:00,34.6,8.5,30.31,WSW,243,3.0,3.0,33,0.00,,---,0.00,VWS V13.01,2013-02-02 16:25:00,
2013-02-02 11:30:00,34.9,8.7,30.30,West,266,0.0,9.0,33,0.00,,---,0.00,VWS V13.01,2013-02-02 16:30:00,
2013-02-02 11:35:00,35.5,7.9,30.30,WNW,287,2.0,4.0,31,0.00,,---,0.00,VWS V13.01,2013-02-02 16:35:00,
2013-02-02 11:40:00,35.9,9.6,30.30,WSW,238,0.0,6.0,33,0.00,,---,0.00,VWS V13.01,2013-02-02 16:40:00,
2013-02-02 11:45:00,36.2,9.9,30.30,WSW,243,0.0,4.0,33,0.00,,---,0.00,VWS V13.01,2013-02-02 16:45:00,
2013-02-02 11:50:00,36.8,9.0,30.30,SW,233,0.0,7.0,31,0.00,,---,0.00,VWS V13.01,2013-02-02 16:50:00,
2013-02-02 11:55:00,36.6,8.8,30.29,SSW,197,0.0,5.0,31,0.00,,---,0.00,VWS V13.01,2013-02-02 16:55:00,
2013-02-02 12:00:00,36.9,6.8,30.28,SSW,206,0.0,4.0,28,0.00,,---,0.00,VWS V13.01,2013-02-02 17:00:00,
2013-02-02 12:05:00,36.9,6.8,30.28,SSW,201,0.0,7.0,28,0.00,,---,0.00,VWS V13.01,2013-02-02 17:05:00,
2013-02-02 12:10:00,37.5,7.4,30.28,SSW,212,0.0,7.0,28,0.00,,---,0.00,VWS V13.01,2013-02-02 17:10:00,
2013-02-02 12:15:00,37.3,7.2,30.27,SSE,150,3.0,9.0,28,0.00,,---,0.00,VWS V13.01,2013-02-02 17:15:00,
2013-02-02 12:20:00,37.9,7.7,30.26,WNW,287,0.0,4.0,28,0.00,,---,0.00,VWS V13.01,2013-02-02 17:20:00,
2013-02-02 12:25:00,37.9,7.7,30.26,SW,234,0.0,4.0,28,0.00,,---,0.00,VWS V13.01,2013-02-02 17:25:00,
2013-02-02 12:30:00,38.0,7.8,30.26,West,271,0.0,7.0,28,0.00,,---,0.00,VWS V13.01,2013-02-02 17:30:00,
2013-02-02 12:35:00,38.0,7.8,30.26,West,273,0.0,4.0,28,0.00,,---,0.00,VWS V13.01,2013-02-02 17:35:00,
2013-02-02 12:40:00,37.9,9.2,30.25,WNW,303,1.0,6.0,30,0.00,,---,0.00,VWS V13.01,2013-02-02 17:40:00,
2013-02-02 12:45:00,37.9,9.2,30.24,WNW,283,2.0,9.0,30,0.00,,---,0.00,VWS V13.01,2013-02-02 17:45:00,
2013-02-02 12:50:00,37.9,10.0,30.24,WNW,299,0.0,10.0,31,0.00,,---,0.00,VWS V13.01,2013-02-02 17:50:00,
2013-02-02 12:55:00,38.3,9.6,30.23,WSW,241,1.0,5.0,30,0.00,,---,0.00,VWS V13.01,2013-02-02 17:55:00,
2013-02-02 13:00:00,39.2,11.8,30.22,WNW,291,3.0,7.0,32,0.00,,---,0.00,VWS V13.01,2013-02-02 18:00:00,
2013-02-02 13:05:00,39.5,9.9,30.23,West,266,6.0,11.0,29,0.00,,---,0.00,VWS V13.01,2013-02-02 18:05:00,
2013-02-02 13:10:00,39.6,9.2,30.22,WSW,238,6.0,6.0,28,0.00,,---,0.00,VWS V13.01,2013-02-02 18:10:00,
2013-02-02 13:15:00,39.8,9.4,30.22,WSW,253,1.0,6.0,28,0.00,,---,0.00,VWS V13.01,2013-02-02 18:15:00,
2013-02-02 13:20:00,39.8,9.4,30.22,WSW,249,1.0,12.0,28,0.00,,---,0.00,VWS V13.01,2013-02-02 18:20:00,
2013-02-02 13:25:00,39.5,8.3,30.22,NE,56,0.0,9.0,27,0.00,,---,0.00,VWS V13.01,2013-02-02 18:25:00,
2013-02-02 13:30:00,39.3,9.7,30.21,West,259,3.0,12.0,29,0.00,,---,0.00,VWS V13.01,2013-02-02 18:30:00,
2013-02-02 13:35:00,39.2,9.6,30.21,West,281,3.0,11.0,29,0.00,,---,0.00,VWS V13.01,2013-02-02 18:35:00,
2013-02-02 13:40:00,39.2,10.4,30.21,NW,312,2.0,10.0,30,0.00,,---,0.00,VWS V13.01,2013-02-02 18:40:00,
2013-02-02 13:45:00,39.2,9.6,30.20,SW,216,0.0,9.0,29,0.00,,---,0.00,VWS V13.01,2013-02-02 18:45:00,
2013-02-02 13:50:00,39.2,8.9,30.19,South,180,1.0,5.0,28,0.00,,---,0.00,VWS V13.01,2013-02-02 18:50:00,
2013-02-02 13:55:00,39.6,10.7,30.19,West,266,0.0,6.0,30,0.00,,---,0.00,VWS V13.01,2013-02-02 18:55:00,
2013-02-02 14:00:00,39.8,9.4,30.19,SSW,203,0.0,7.0,28,0.00,,---,0.00,VWS V13.01,2013-02-02 19:00:00,
2013-02-02 14:05:00,39.8,9.4,30.19,SSW,202,0.0,6.0,28,0.00,,---,0.00,VWS V13.01,2013-02-02 19:05:00,
2013-02-02 14:10:00,39.9,9.4,30.18,SSW,197,0.0,5.0,28,0.00,,---,0.00,VWS V13.01,2013-02-02 19:10:00,
2013-02-02 14:15:00,39.9,9.4,30.18,NW,307,2.0,7.0,28,0.00,,---,0.00,VWS V13.01,2013-02-02 19:15:00,
2013-02-02 14:20:00,39.9,9.4,30.17,SSE,164,0.0,9.0,28,0.00,,---,0.00,VWS V13.01,2013-02-02 19:20:00,
2013-02-02 14:25:00,40.3,9.8,30.17,SW,235,0.0,1.0,28,0.00,,---,0.00,VWS V13.01,2013-02-02 19:25:00,
2013-02-02 14:30:00,40.5,10.0,30.17,SSW,193,1.0,6.0,28,0.00,,---,0.00,VWS V13.01,2013-02-02 19:30:00,
2013-02-02 14:35:00,40.6,11.6,30.17,WNW,282,4.0,16.0,30,0.00,,---,0.00,VWS V13.01,2013-02-02 19:35:00,
2013-02-02 14:40:00,40.6,10.9,30.17,West,276,0.0,9.0,29,0.00,,---,0.00,VWS V13.01,2013-02-02 19:40:00,
2013-02-02 14:45:00,40.5,10.0,30.17,WSW,254,5.0,7.0,28,0.00,,---,0.00,VWS V13.01,2013-02-02 19:45:00,
2013-02-02 14:50:00,40.5,10.0,30.16,WNW,294,2.0,9.0,28,0.00,,---,0.00,VWS V13.01,2013-02-02 19:50:00,
2013-02-02 14:55:00,40.5,9.2,30.16,West,267,1.0,5.0,27,0.00,,---,0.00,VWS V13.01,2013-02-02 19:55:00,
2013-02-02 15:00:00,40.5,9.2,30.16,WSW,245,0.0,9.0,27,0.00,,---,0.00,VWS V13.01,2013-02-02 20:00:00,
2013-02-02 15:05:00,40.3,9.0,30.16,SSW,211,0.0,4.0,27,0.00,,---,0.00,VWS V13.01,2013-02-02 20:05:00,
2013-02-02 15:10:00,40.3,9.8,30.15,SSW,192,0.0,1.0,28,0.00,,---,0.00,VWS V13.01,2013-02-02 20:10:00,
2013-02-02 15:15:00,40.3,9.8,30.15,West,276,0.0,3.0,28,0.00,,---,0.00,VWS V13.01,2013-02-02 20:15:00,
2013-02-02 15:20:00,40.3,9.0,30.15,South,182,0.0,6.0,27,0.00,,---,0.00,VWS V13.01,2013-02-02 20:20:00,
2013-02-02 15:25:00,40.3,9.0,30.15,WSW,251,5.0,14.0,27,0.00,,---,0.00,VWS V13.01,2013-02-02 20:25:00,
2013-02-02 15:30:00,40.3,9.8,30.15,WSW,252,1.0,3.0,28,0.00,,---,0.00,VWS V13.01,2013-02-02 20:30:00,
2013-02-02 15:35:00,40.3,9.0,30.15,SSW,192,1.0,5.0,27,0.00,,---,0.00,VWS V13.01,2013-02-02 20:35:00,
2013-02-02 15:40:00,40.3,9.8,30.14,SW,220,0.0,3.0,28,0.00,,---,0.00,VWS V13.01,2013-02-02 20:40:00,
2013-02-02 15:45:00,40.2,9.7,30.14,SSW,197,0.0,4.0,28,0.00,,---,0.00,VWS V13.01,2013-02-02 20:45:00,
2013-02-02 15:50:00,40.1,9.6,30.13,West,264,0.0,7.0,28,0.00,,---,0.00,VWS V13.01,2013-02-02 20:50:00,
2013-02-02 15:55:00,40.1,10.4,30.13,SSE,156,0.0,5.0,29,0.00,,---,0.00,VWS V13.01,2013-02-02 20:55:00,
2013-02-02 16:00:00,40.1,11.9,30.13,West,277,3.0,10.0,31,0.00,,---,0.00,VWS V13.01,2013-02-02 21:00:00,
2013-02-02 16:05:00,40.1,11.9,30.12,South,180,2.0,4.0,31,0.00,,---,0.00,VWS V13.01,2013-02-02 21:05:00,
2013-02-02 16:10:00,40.2,13.4,30.12,West,271,0.0,10.0,33,0.00,,---,0.00,VWS V13.01,2013-02-02 21:10:00,
2013-02-02 16:15:00,40.2,12.7,30.12,SW,225,0.0,5.0,32,0.00,,---,0.00,VWS V13.01,2013-02-02 21:15:00,
2013-02-02 16:20:00,40.2,12.7,30.12,West,260,1.0,3.0,32,0.00,,---,0.00,VWS V13.01,2013-02-02 21:20:00,
2013-02-02 16:25:00,40.3,13.5,30.12,West,274,0.0,5.0,33,0.00,,---,0.00,VWS V13.01,2013-02-02 21:25:00,
2013-02-02 16:30:00,40.3,12.8,30.11,WSW,249,1.0,3.0,32,0.00,,---,0.00,VWS V13.01,2013-02-02 21:30:00,
2013-02-02 16:35:00,40.5,11.5,30.11,WSW,237,0.0,2.0,30,0.00,,---,0.00,VWS V13.01,2013-02-02 21:35:00,
2013-02-02 16:40:00,40.5,12.3,30.11,WSW,237,0.0,0.0,31,0.00,,---,0.00,VWS V13.01,2013-02-02 21:40:00,
2013-02-02 16:45:00,40.5,11.5,30.11,SW,223,0.0,4.0,30,0.00,,---,0.00,VWS V13.01,2013-02-02 21:45:00,
2013-02-02 16:50:00,40.5,12.3,30.11,West,261,0.0,6.0,31,0.00,,---,0.00,VWS V13.01,2013-02-02 21:50:00,
2013-02-02 16:55:00,40.6,12.4,30.11,WSW,246,2.0,4.0,31,0.00,,---,0.00,VWS V13.01,2013-02-02 21:55:00,
2013-02-02 17:00:00,40.6,12.4,30.10,WNW,291,2.0,4.0,31,0.00,,---,0.00,VWS V13.01,2013-02-02 22:00:00,
2013-02-02 17:05:00,40.6,14.4,30.10,WNW,289,0.0,4.0,34,0.00,,---,0.00,VWS V13.01,2013-02-02 22:05:00,
2013-02-02 17:10:00,40.6,13.1,30.10,WNW,289,0.0,1.0,32,0.00,,---,0.00,VWS V13.01,2013-02-02 22:10:00,
2013-02-02 17:15:00,40.6,13.1,30.10,WSW,240,0.0,2.0,32,0.00,,---,0.00,VWS V13.01,2013-02-02 22:15:00,
2013-02-02 17:20:00,40.6,14.4,30.10,WSW,243,0.0,7.0,34,0.00,,---,0.00,VWS V13.01,2013-02-02 22:20:00,
2013-02-02 17:25:00,40.6,15.1,30.09,SSW,208,1.0,4.0,35,0.00,,---,0.00,VWS V13.01,2013-02-02 22:25:00,
2013-02-02 17:30:00,40.6,15.1,30.09,WSW,249,0.0,2.0,35,0.00,,---,0.00,VWS V13.01,2013-02-02 22:30:00,
2013-02-02 17:35:00,40.6,16.4,30.09,SSW,197,0.0,2.0,37,0.00,,---,0.00,VWS V13.01,2013-02-02 22:35:00,
2013-02-02 17:40:00,40.6,16.4,30.09,SW,222,0.0,1.0,37,0.00,,---,0.00,VWS V13.01,2013-02-02 22:40:00,
2013-02-02 17:45:00,40.5,17.5,30.09,WNW,282,0.0,5.0,39,0.00,,---,0.00,VWS V13.01,2013-02-02 22:45:00,
2013-02-02 17:50:00,40.5,16.9,30.09,WNW,282,0.0,2.0,38,0.00,,---,0.00,VWS V13.01,2013-02-02 22:50:00,
2013-02-02 17:55:00,40.5,18.1,30.09,WNW,282,0.0,0.0,40,0.00,,---,0.00,VWS V13.01,2013-02-02 22:55:00,
2013-02-02 18:00:00,40.5,17.5,30.09,WNW,282,0.0,1.0,39,0.00,,---,0.00,VWS V13.01,2013-02-02 23:00:00,
2013-02-02 18:05:00,40.5,17.5,30.09,WNW,282,1.0,1.0,39,0.00,,---,0.00,VWS V13.01,2013-02-02 23:05:00,
2013-02-02 18:10:00,40.3,17.9,30.09,WNW,282,0.0,0.0,40,0.00,,---,0.00,VWS V13.01,2013-02-02 23:10:00,
2013-02-02 18:15:00,40.3,17.3,30.08,WNW,282,0.0,0.0,39,0.00,,---,0.00,VWS V13.01,2013-02-02 23:15:00,
2013-02-02 18:20:00,40.2,17.2,30.08,WNW,282,0.0,0.0,39,0.00,,---,0.00,VWS V13.01,2013-02-02 23:20:00,
2013-02-02 18:25:00,40.2,17.8,30.08,WNW,282,0.0,0.0,40,0.00,,---,0.00,VWS V13.01,2013-02-02 23:25:00,
2013-02-02 18:30:00,40.1,17.7,30.08,WNW,282,0.0,0.0,40,0.00,,---,0.00,VWS V13.01,2013-02-02 23:30:00,
2013-02-02 18:35:00,39.9,17.5,30.08,WNW,282,0.0,0.0,40,0.00,,---,0.00,VWS V13.01,2013-02-02 23:35:00,
2013-02-02 18:40:00,39.8,17.5,30.08,WNW,282,0.0,0.0,40,0.00,,---,0.00,VWS V13.01,2013-02-02 23:40:00,
2013-02-02 18:45:00,39.6,17.9,30.07,WNW,282,0.0,0.0,41,0.00,,---,0.00,VWS V13.01,2013-02-02 23:45:00,
2013-02-02 18:50:00,39.5,17.8,30.07,WNW,282,0.0,0.0,41,0.00,,---,0.00,VWS V13.01,2013-02-02 23:50:00,
2013-02-02 18:55:00,39.5,18.3,30.07,WNW,282,0.0,0.0,42,0.00,,---,0.00,VWS V13.01,2013-02-02 23:55:00,
2013-02-02 19:00:00,39.3,19.2,30.07,WNW,282,0.0,0.0,44,0.00,,---,0.00,VWS V13.01,2013-02-03 00:00:00,
2013-02-02 19:05:00,39.2,19.1,30.07,WNW,282,0.0,0.0,44,0.00,,---,0.00,VWS V13.01,2013-02-03 00:05:00,
2013-02-02 19:10:00,39.1,19.0,30.06,WNW,282,0.0,0.0,44,0.00,,---,0.00,VWS V13.01,2013-02-03 00:10:00,
2013-02-02 19:15:00,38.9,18.9,30.07,WNW,282,0.0,0.0,44,0.00,,---,0.00,VWS V13.01,2013-02-03 00:15:00,
2013-02-02 19:20:00,38.9,18.3,30.07,WNW,282,0.0,0.0,43,0.00,,---,0.00,VWS V13.01,2013-02-03 00:20:00,
2013-02-02 19:25:00,38.8,18.8,30.06,WNW,282,0.0,0.0,44,0.00,,---,0.00,VWS V13.01,2013-02-03 00:25:00,
2013-02-02 19:30:00,38.6,18.6,30.06,WNW,282,0.0,0.0,44,0.00,,---,0.00,VWS V13.01,2013-02-03 00:30:00,
2013-02-02 19:35:00,38.6,19.1,30.06,WNW,282,0.0,0.0,45,0.00,,---,0.00,VWS V13.01,2013-02-03 00:35:00,
2013-02-02 19:40:00,38.5,20.0,30.06,WNW,282,0.0,0.0,47,0.00,,---,0.00,VWS V13.01,2013-02-03 00:40:00,
2013-02-02 19:45:00,38.5,20.0,30.07,WNW,282,0.0,0.0,47,0.00,,---,0.00,VWS V13.01,2013-02-03 00:45:00,
2013-02-02 19:50:00,38.3,19.4,30.07,WNW,282,0.0,0.0,46,0.00,,---,0.00,VWS V13.01,2013-02-03 00:50:00,
2013-02-02 19:55:00,38.2,19.8,30.06,WNW,282,0.0,0.0,47,0.00,,---,0.00,VWS V13.01,2013-02-03 00:55:00,
2013-02-02 20:00:00,38.2,21.7,30.06,SSW,203,0.0,2.0,51,0.00,,---,0.00,VWS V13.01,2013-02-03 01:00:00,
2013-02-02 20:05:00,38.0,20.1,30.06,WSW,237,1.0,2.0,48,0.00,,---,0.00,VWS V13.01,2013-02-03 01:05:00,
2013-02-02 20:10:00,38.0,20.5,30.06,West,281,0.0,2.0,49,0.00,,---,0.00,VWS V13.01,2013-02-03 01:10:00,
2013-02-02 20:15:00,38.0,21.5,30.06,West,281,0.0,0.0,51,0.00,,---,0.00,VWS V13.01,2013-02-03 01:15:00,
2013-02-02 20:20:00,38.0,22.0,30.06,West,281,0.0,0.0,52,0.00,,---,0.00,VWS V13.01,2013-02-03 01:20:00,
2013-02-02 20:25:00,38.0,22.0,30.06,West,281,0.0,0.0,52,0.00,,---,0.00,VWS V13.01,2013-02-03 01:25:00,
2013-02-02 20:30:00,38.0,22.0,30.06,WSW,243,0.0,2.0,52,0.00,,---,0.00,VWS V13.01,2013-02-03 01:30:00,
2013-02-02 20:35:00,38.0,22.4,30.06,West,264,0.0,1.0,53,0.00,,---,0.00,VWS V13.01,2013-02-03 01:35:00,
2013-02-02 20:40:00,38.0,22.9,30.06,WSW,252,0.0,2.0,54,0.00,,---,0.00,VWS V13.01,2013-02-03 01:40:00,
2013-02-02 20:45:00,38.0,23.3,30.06,WSW,252,0.0,1.0,55,0.00,,---,0.00,VWS V13.01,2013-02-03 01:45:00,
2013-02-02 20:50:00,37.9,23.6,30.06,WNW,284,0.0,4.0,56,0.00,,---,0.00,VWS V13.01,2013-02-03 01:50:00,
2013-02-02 20:55:00,37.9,23.2,30.06,West,281,0.0,3.0,55,0.00,,---,0.00,VWS V13.01,2013-02-03 01:55:00,
2013-02-02 21:00:00,37.9,23.6,30.05,West,279,0.0,2.0,56,0.00,,---,0.00,VWS V13.01,2013-02-03 02:00:00,
2013-02-02 21:05:00,37.9,23.2,30.05,West,267,0.0,3.0,55,0.00,,---,0.00,VWS V13.01,2013-02-03 02:05:00,
2013-02-02 21:10:00,37.9,22.8,30.05,West,267,0.0,1.0,54,0.00,,---,0.00,VWS V13.01,2013-02-03 02:10:00,
2013-02-02 21:14:00,37.9,22.8,30.05,West,267,1.0,1.0,54,0.00,,---,0.00,VWS V13.01,2013-02-03 02:14:00,
2013-02-02 21:19:00,37.9,23.2,30.05,West,267,1.0,1.0,55,0.00,,---,0.00,VWS V13.01,2013-02-03 02:19:00,
2013-02-02 21:24:00,37.9,23.6,30.06,West,276,1.0,7.0,56,0.00,,---,0.00,VWS V13.01,2013-02-03 02:24:00,
2013-02-02 21:29:00,38.0,23.3,30.06,WNW,291,3.0,10.0,55,0.00,,---,0.00,VWS V13.01,2013-02-03 02:29:00,
2013-02-02 21:35:00,38.5,25.4,30.05,WNW,285,2.0,18.0,59,0.00,,---,0.00,VWS V13.01,2013-02-03 02:35:00,
2013-02-02 21:40:00,38.8,26.5,30.05,WNW,282,4.0,11.0,61,0.00,,---,0.00,VWS V13.01,2013-02-03 02:40:00,
2013-02-02 21:44:00,39.3,29.3,30.06,SW,233,7.0,19.0,67,0.00,,---,0.00,VWS V13.01,2013-02-03 02:44:00,
2013-02-02 21:49:00,39.6,31.0,30.06,WNW,292,4.0,23.0,71,0.00,,---,0.00,VWS V13.01,2013-02-03 02:49:00,
2013-02-02 21:54:00,39.6,31.7,30.06,West,259,6.0,10.0,73,0.00,,---,0.00,VWS V13.01,2013-02-03 02:54:00,
2013-02-02 21:59:00,39.6,32.3,30.06,WNW,282,1.0,12.0,75,0.00,,---,0.00,VWS V13.01,2013-02-03 02:59:00,
2013-02-02 22:04:00,39.6,33.0,30.06,WNW,299,4.0,13.0,77,0.01,,---,0.01,VWS V13.01,2013-02-03 03:04:00,
2013-02-02 22:09:00,39.5,33.2,30.06,West,275,5.0,12.0,78,0.01,,---,0.01,VWS V13.01,2013-02-03 03:09:00,
2013-02-02 22:14:00,39.3,33.3,30.06,West,280,1.0,10.0,79,0.01,,---,0.01,VWS V13.01,2013-02-03 03:14:00,
2013-02-02 22:19:00,39.2,33.6,30.06,WNW,297,8.0,17.0,80,0.01,,---,0.01,VWS V13.01,2013-02-03 03:19:00,
2013-02-02 22:24:00,39.1,33.8,30.07,WNW,287,9.0,9.0,81,0.02,,---,0.02,VWS V13.01,2013-02-03 03:24:00,
2013-02-02 22:29:00,38.9,33.9,30.06,West,265,1.0,10.0,82,0.02,,---,0.02,VWS V13.01,2013-02-03 03:29:00,
2013-02-02 22:34:00,38.8,33.8,30.06,West,269,1.0,4.0,82,0.02,,---,0.02,VWS V13.01,2013-02-03 03:34:00,
2013-02-02 22:39:00,38.6,33.9,30.06,WNW,290,0.0,6.0,83,0.02,,---,0.02,VWS V13.01,2013-02-03 03:39:00,
2013-02-02 22:44:00,38.6,33.9,30.06,West,281,0.0,6.0,83,0.02,,---,0.02,VWS V13.01,2013-02-03 03:44:00,
2013-02-02 22:49:00,38.5,34.1,30.05,West,268,3.0,11.0,84,0.02,,---,0.02,VWS V13.01,2013-02-03 03:49:00,
2013-02-02 22:54:00,38.3,33.9,30.05,West,280,5.0,10.0,84,0.02,,---,0.02,VWS V13.01,2013-02-03 03:54:00,
2013-02-02 22:59:00,38.2,34.1,30.05,West,279,1.0,5.0,85,0.02,,---,0.02,VWS V13.01,2013-02-03 03:59:00,
2013-02-02 23:04:00,38.2,34.1,30.04,WNW,295,2.0,5.0,85,0.02,,---,0.02,VWS V13.01,2013-02-03 04:04:00,
2013-02-02 23:09:00,38.0,33.9,30.04,WNW,288,1.0,4.0,85,0.01,,---,0.02,VWS V13.01,2013-02-03 04:09:00,
2013-02-02 23:14:00,38.0,34.2,30.03,WNW,288,0.0,3.0,86,0.01,,---,0.02,VWS V13.01,2013-02-03 04:14:00,
2013-02-02 23:19:00,38.0,34.2,30.03,WNW,287,0.0,4.0,86,0.01,,---,0.02,VWS V13.01,2013-02-03 04:19:00,
2013-02-02 23:24:00,37.9,34.1,30.04,West,271,0.0,6.0,86,0.01,,---,0.02,VWS V13.01,2013-02-03 04:24:00,
2013-02-02 23:29:00,37.9,34.1,30.03,WNW,290,2.0,2.0,86,0.00,,---,0.02,VWS V13.01,2013-02-03 04:29:00,
2013-02-02 23:34:00,37.9,34.1,30.03,WNW,300,0.0,3.0,86,0.00,,---,0.02,VWS V13.01,2013-02-03 04:34:00,
2013-02-02 23:39:00,37.8,34.0,30.03,NW,316,1.0,7.0,86,0.00,,---,0.02,VWS V13.01,2013-02-03 04:39:00,
2013-02-02 23:44:00,37.8,34.3,30.03,WNW,294,0.0,4.0,87,0.00,,---,0.02,VWS V13.01,2013-02-03 04:44:00,
2013-02-02 23:49:00,37.8,34.3,30.02,WNW,291,1.0,3.0,87,0.00,,---,0.02,VWS V13.01,2013-02-03 04:49:00,
2013-02-02 23:54:00,37.8,34.3,30.02,WNW,291,0.0,2.0,87,0.00,,---,0.02,VWS V13.01,2013-02-03 04:54:00,
2013-02-02 23:59:00,37.6,34.1,30.02,WNW,291,0.0,2.0,87,0.00,,---,0.02,VWS V13.01,2013-02-03 04:59:00,